Weather History for Friday Harbor, WA

Change the Weather History Date:

Friday, January 31, 2014

  Actual Average Record
Temperature  
Mean Temperature 36 °F -  
Max Temperature 43 °F 45 °F 53 °F (1998)
Min Temperature 28 °F 36 °F 28 °F (2011)
Degree Days  
Heating Degree Days 30    
Moisture  
Dew Point 28 °F    
Average Humidity 72    
Maximum Humidity 96    
Minimum Humidity 49    
Precipitation  
Precipitation 0.00 in - - ()
Sea Level Pressure  
Sea Level Pressure 30.07 in    
Wind  
Wind Speed 6 mph (North)    
Max Wind Speed 16 mph    
Max Gust Speed 20 mph    
Visibility 10 miles    
Events      
Averages and records for this station are not official NWS values.
T = Trace of Precipitation, MM = Missing Value Source: NWS Daily Summary

Daily Weather History Graph

Daily Weather History Graph

Search for Another Location

Airport:

Trip Planner

Search our weather history database for the weather conditions in past years. The results will help you decide how hot, cold, wet, or windy it might be!

Date:

Astronomy

Jan. 31, 2014 Rise Set
Actual Time 7:42 AM PST 5:09 PM PST
Civil Twilight 7:08 AM PST 5:43 PM PST
Nautical Twilight 6:30 AM PST 6:20 PM PST
Astronomical Twilight 5:54 AM PST 6:57 PM PST
Moon 7:47 AM PST (1/31) 6:51 PM PST (1/31)
Length of Visible Light 10h 34m
Length of Day
9h 27m
New Moon, 1% of the Moon is Illuminated
Jan 31
New Moon
Feb 6
First Quarter
Feb 14
Full
Feb 22
Last Quarter
Mar 1
New

Hourly Weather History & Observations

Time (PST) Temp. Windchill Dew Point Humidity Pressure Visibility Wind Dir Wind Speed Gust Speed Precip Events Conditions
12:53 AM 37.9 °F 32.7 °F 32.0 °F 79% 29.96 in 10.0 mi NNE 6.9 mph - N/A   Overcast
1:53 AM 37.0 °F 32.4 °F 33.1 °F 86% 29.97 in 10.0 mi North 5.8 mph - N/A   Overcast
2:10 AM 37.0 °F 33.3 °F 35.1 °F 93% 29.97 in 10.0 mi North 4.6 mph - N/A   Overcast
2:21 AM 37.0 °F 33.3 °F 32.0 °F 82% 29.97 in 10.0 mi North 4.6 mph - N/A   Overcast
2:30 AM 37.0 °F 31.0 °F 30.0 °F 76% 29.98 in 10.0 mi North 8.1 mph - N/A   Overcast
2:40 AM 37.0 °F 31.0 °F 28.9 °F 73% 29.98 in 10.0 mi North 8.1 mph - N/A   Overcast
2:53 AM 37.0 °F 31.0 °F 28.9 °F 73% 29.99 in 10.0 mi North 8.1 mph - N/A   Overcast
3:03 AM 37.0 °F 31.0 °F 28.0 °F 70% 29.98 in 10.0 mi North 8.1 mph - N/A   Overcast
3:53 AM 37.0 °F 29.3 °F 26.1 °F 65% 30.00 in 10.0 mi North 11.5 mph - N/A   Overcast
4:53 AM 37.0 °F 30.4 °F 25.0 °F 62% 30.01 in 10.0 mi North 9.2 mph - N/A   Overcast
5:53 AM 37.0 °F 30.4 °F 24.1 °F 59% 30.02 in 10.0 mi North 9.2 mph - N/A   Overcast
6:53 AM 37.0 °F 27.7 °F 23.0 °F 57% 30.04 in 10.0 mi North 16.1 mph 19.6 mph N/A   Overcast
7:53 AM 36.0 °F 32.1 °F 23.0 °F 59% 30.06 in 10.0 mi North 4.6 mph - N/A   Overcast
8:53 AM 37.9 °F 33.5 °F 23.0 °F 55% 30.08 in 10.0 mi NE 5.8 mph - N/A   Overcast
9:53 AM 37.9 °F - 24.1 °F 57% 30.10 in 10.0 mi Calm Calm - N/A   Scattered Clouds
10:53 AM 41.0 °F 34.7 °F 23.0 °F 49% 30.11 in 10.0 mi North 10.4 mph - N/A   Clear
11:53 AM 43.0 °F 37.7 °F 25.0 °F 49% 30.11 in 10.0 mi NNE 9.2 mph - N/A   Clear
12:53 PM 42.1 °F 37.7 °F 25.0 °F 51% 30.11 in 10.0 mi North 6.9 mph - N/A   Clear
1:53 PM 43.0 °F 38.2 °F 27.0 °F 53% 30.12 in 10.0 mi North 8.1 mph - N/A   Clear
2:53 PM 42.1 °F 37.7 °F 28.0 °F 58% 30.13 in 10.0 mi North 6.9 mph - N/A   Clear
3:53 PM 41.0 °F 39.0 °F 28.9 °F 62% 30.14 in 10.0 mi Variable 3.5 mph - N/A   Clear
4:53 PM 37.9 °F - 30.0 °F 73% 30.15 in 10.0 mi Calm Calm - N/A   Mostly Cloudy
5:53 PM 32.0 °F - 28.9 °F 88% 30.15 in 10.0 mi Calm Calm - N/A   Clear
6:53 PM 32.0 °F - 28.9 °F 88% 30.15 in 10.0 mi Calm Calm - N/A   Clear
7:53 PM 30.0 °F - 27.0 °F 88% 30.16 in 10.0 mi Calm Calm - N/A   Clear
8:53 PM 28.9 °F - 27.0 °F 92% 30.16 in 10.0 mi Calm Calm - N/A   Clear
9:53 PM 28.9 °F - 28.0 °F 96% 30.17 in 10.0 mi Calm Calm - N/A   Clear
10:53 PM 28.9 °F - 27.0 °F 92% 30.17 in 10.0 mi Calm Calm - N/A   Clear
11:53 PM 30.0 °F - 28.0 °F 92% 30.18 in 10.0 mi Calm Calm - N/A   Clear